Change the Weather History Date:

Friday, July 26, 2013

  Actual Average Record
Temperature  
Mean Temperature 68 °F 76 °F  
Max Temperature 75 °F 86 °F 104 °F (1936)
Min Temperature 61 °F 65 °F 52 °F (1962)
Degree Days  
Heating Degree Days 0 0  
Month to date heating degree days 0 0  
Since 1 June heating degree days 12 15  
Since 1 July heating degree days 0 0  
Cooling Degree Days 3 11  
Month to date cooling degree days 281 286  
Year to date cooling degree days 665 630  
Since 1 June cooling degree days 539 526  
Growing Degree Days 17 (Base 50)    
Moisture  
Dew Point 65 °F    
Average Humidity 87    
Maximum Humidity 100    
Minimum Humidity 73    
Precipitation  
Precipitation 1.10 in 0.12 in 1.40 in (2002)
Month to date precipitation 2.40 3.37  
Year to date precipitation 29.47 21.84  
Snow  
Snow 0.00 in 0.00 in 0.00 in ()
Month to date snowfall 0.0 0.0  
Since 1 June snowfall 0.0 0.0  
Since 1 July snowfall 0.0 0.0  
Snow Depth 0.00 in    
Sea Level Pressure  
Sea Level Pressure 30.00 in    
Wind  
Wind Speed 6 mph (SSW)    
Max Wind Speed 15 mph    
Max Gust Speed 21 mph    
Visibility 7 miles    
Events Rain , Thunderstorm    
T = Trace of Precipitation, MM = Missing Value Source: NWS Daily Summary

Daily Weather History Graph

Daily Weather History Graph

Search for Another Location

Airport or City:

Trip Planner

Search our weather history database for the weather conditions in past years. The results will help you decide how hot, cold, wet, or windy it might be!

Date:

Astronomy

Jul. 26, 2013 Rise Set
Actual Time 5:52 AM CDT 8:17 PM CDT
Civil Twilight 5:21 AM CDT 8:48 PM CDT
Nautical Twilight 4:43 AM CDT 9:26 PM CDT
Astronomical Twilight 4:01 AM CDT 10:08 PM CDT
Moon 10:32 PM CDT (7/26) 10:27 AM CDT (7/26)
Length of Visible Light 15h 26m
Length of Day
14h 25m
Waning Gibbous, 80% of the Moon is Illuminated
Jul 26
Waning Gibbous
Jul 29
Last Quarter
Aug 6
New
Aug 14
First Quarter
Aug 20
Full

Hourly Weather History & Observations

Time (CDT) Temp. Dew Point Humidity Pressure Visibility Wind Dir Wind Speed Gust Speed Precip Events Conditions
12:52 AM 61.0 °F 59.0 °F 93% 30.06 in 10.0 mi South 3.5 mph - N/A   Clear
1:52 AM 63.0 °F 59.0 °F 87% 30.04 in 10.0 mi South 4.6 mph - N/A   Clear
2:52 AM 62.1 °F 57.9 °F 86% 30.04 in 10.0 mi Calm Calm - N/A   Clear
3:52 AM 62.1 °F 57.9 °F 86% 30.03 in 10.0 mi South 6.9 mph - N/A   Clear
4:52 AM 62.1 °F 57.9 °F 86% 30.04 in 10.0 mi South 6.9 mph - N/A   Clear
5:52 AM 63.0 °F 57.9 °F 84% 30.02 in 10.0 mi SSE 6.9 mph - N/A   Mostly Cloudy
6:52 AM 64.9 °F 57.9 °F 78% 30.02 in 10.0 mi South 6.9 mph - N/A   Mostly Cloudy
7:52 AM 66.9 °F 57.9 °F 73% 30.04 in 10.0 mi SSW 8.1 mph - N/A   Overcast
8:52 AM 70.0 °F 60.1 °F 71% 30.04 in 10.0 mi SSW 8.1 mph - N/A   Overcast
9:52 AM 69.1 °F 61.0 °F 75% 30.05 in 10.0 mi SSW 5.8 mph - 0.00 in   Overcast
10:52 AM 70.0 °F 62.1 °F 76% 30.04 in 10.0 mi SSE 4.6 mph - N/A   Overcast
11:52 AM 72.0 °F 62.1 °F 71% 30.03 in 10.0 mi South 5.8 mph - N/A   Overcast
12:52 PM 72.0 °F 64.0 °F 76% 30.01 in 10.0 mi SSW 5.8 mph - 0.00 in Rain Light Rain
1:52 PM 73.0 °F 64.9 °F 76% 30.00 in 10.0 mi SSW 8.1 mph - 0.00 in   Overcast
2:39 PM 69.8 °F 68.0 °F 94% 30.01 in 2.5 mi SW 5.8 mph - 0.04 in Rain Rain
2:50 PM 69.8 °F 68.0 °F 94% 30.01 in 3.0 mi WSW 5.8 mph - 0.06 in Rain Rain
2:52 PM 70.0 °F 68.0 °F 93% 30.01 in 2.0 mi SW 6.9 mph - 0.06 in Rain Heavy Rain
2:56 PM 69.8 °F 68.0 °F 94% 30.01 in 1.2 mi SW 6.9 mph - 0.05 in Rain Heavy Rain
3:24 PM 69.8 °F 68.0 °F 94% 30.00 in 6.0 mi SSW 4.6 mph - 0.10 in Rain Light Rain
3:36 PM 69.8 °F 68.0 °F 94% 29.99 in 1.8 mi South 4.6 mph - 0.15 in Rain Heavy Rain
3:44 PM 69.8 °F 69.8 °F 100% 29.99 in 3.0 mi South 3.5 mph - 0.17 in Rain Light Rain
3:52 PM 70.0 °F 69.1 °F 97% 29.98 in 6.0 mi South 4.6 mph - 0.18 in Rain Light Rain
4:52 PM 73.9 °F 70.0 °F 87% 29.97 in 10.0 mi SSW 6.9 mph - 0.00 in   Overcast
5:43 PM 73.4 °F 68.0 °F 83% 29.96 in 10.0 mi SSW 11.5 mph 18.4 mph N/A   Mostly Cloudy
5:52 PM 73.0 °F 68.0 °F 84% 29.95 in 10.0 mi SSW 11.5 mph - N/A   Overcast
6:52 PM 73.0 °F 68.0 °F 84% 29.94 in 10.0 mi SSW 6.9 mph - N/A   Overcast
7:52 PM 73.0 °F 68.0 °F 84% 29.95 in 10.0 mi SW 4.6 mph - N/A   Overcast
8:11 PM 71.6 °F 68.0 °F 88% 29.95 in 10.0 mi SSW 3.5 mph - N/A Thunderstorm Thunderstorm
8:35 PM 66.2 °F 66.2 °F 100% 29.98 in 1.8 mi NW 11.5 mph - 0.11 in Rain , Thunderstorm Heavy Thunderstorms and Rain
8:41 PM 66.2 °F 66.2 °F 100% 29.98 in 0.8 mi North 5.8 mph - 0.41 in Rain , Thunderstorm Heavy Thunderstorms and Rain
8:50 PM 66.2 °F 66.2 °F 100% 29.98 in 1.5 mi NNE 4.6 mph - 0.72 in Rain , Thunderstorm Heavy Thunderstorms and Rain
8:52 PM 66.0 °F 66.0 °F 100% 29.97 in 2.0 mi NE 5.8 mph - 0.73 in Rain , Thunderstorm Heavy Thunderstorms and Rain
8:55 PM 66.2 °F 66.2 °F 100% 29.97 in 3.0 mi NE 3.5 mph - 0.02 in Rain , Thunderstorm Heavy Thunderstorms and Rain
9:15 PM 66.2 °F 66.2 °F 100% 29.98 in 6.0 mi West 8.1 mph - 0.11 in Rain Light Rain
9:52 PM 66.0 °F 66.0 °F 100% 29.97 in 10.0 mi WNW 3.5 mph - 0.13 in Rain Light Rain
10:52 PM 64.9 °F 64.9 °F 100% 29.97 in 10.0 mi WSW 5.8 mph - 0.00 in   Scattered Clouds
11:52 PM 63.0 °F 63.0 °F 100% 29.96 in 10.0 mi West 6.9 mph - N/A   Clear